Regional Weather Roundup
Issued by NWS

Home | Current Version | Previous Version | Graphics & Text | Print | Product List | Glossary On
Versions: 1 2 3 4 5 6 7 8 9 10 11 12 13 14 15 16 17 18 19 20 21 22 23 24 25 26 27 28 29 30 31 32 33 34 35 36 37 38 39 40 41 42 43 44 45 46 47 48 49 50
000
ASUS45 KTFX 140910
RWRMT
MONTANA REGIONAL WEATHER ROUNDUP
NATIONAL WEATHER SERVICE GREAT FALLS MT
200 AM MST SUN FEB 14 2016

NOTE: "FAIR" INDICATES FEW OR NO CLOUDS BELOW 12000 FEET WITH NO
SIGNIFICANT WEATHER AND/OR OBSTRUCTIONS TO VISIBILITY.

MTZ001>007-043-141000-
WEST OF THE DIVIDE

CITY           SKY/WX    TMP DP  RH WIND       PRES   REMARKS
KALISPELL      LGT SNOW  33  32  96 S12       29.97F FOG     WCI  24
MISSOULA       CLOUDY    35  29  78 CALM      30.02F
BUTTE          CLOUDY    33  22  63 VRB5      29.97F
MULLAN PASS    LGT SNOW  25  24  96 VRB7      29.96R FOG     WCI  17
ANACONDA         N/A     34  23  64 SE8       29.97S WCI  27
DEER LODGE       N/A     30  27  86 CALM      29.98F
HAMILTON         N/A     39  27  60 SE13      30.01F WCI  32
PLAINS           N/A     36  31  82 CALM      30.02F
$$

MTZ008-052>055-141000-
SOUTHWEST MONTANA

CITY           SKY/WX    TMP DP  RH WIND       PRES   REMARKS
BOZEMAN        CLOUDY    36  27  69 W9        29.98F WCI  29
DILLON         CLOUDY    34  22  61 SW16      30.01S WCI  24
ENNIS          CLOUDY    32  25  74 S15G21    30.05F WCI  22
$$

MTZ009-010-012-014-046-048-049-054-141000-
EAST SLOPES AND CENTRAL MONTANA

CITY           SKY/WX    TMP DP  RH WIND       PRES   REMARKS
CUT BANK       CLOUDY    35  23  61 W23       29.77F WCI  23
GREAT FALLS    CLOUDY    38  23  55 SW18      29.85F WCI  28
MALMSTROM AFB  CLOUDY    39  24  55 SW24G33   29.86F WCI  28
HELENA         FLURRIES  35  29  78 CALM      29.95F
CHOTEAU          N/A     37  21  52 SW12      29.82F WCI  30
CONRAD           N/A     33  26  76 S3        29.84F
$$

MTZ011-013-016-021-045-047-050-051-141000-
NORTH CENTRAL MONTANA

CITY           SKY/WX    TMP DP  RH WIND       PRES   REMARKS
HAVRE          MOCLDY    33  24  69 SW12      29.82F WCI  24
LEWISTOWN      CLOUDY    36  22  56 SW10      29.87F WCI  28
N BAR RANCH    CLOUDY    32  19  59 NW9       29.87F WCI  24
CHINOOK          N/A     28  23  80 CALM      29.82F
$$

MTZ017>020-022>027-061-062-141000-
NORTHEAST MONTANA

CITY           SKY/WX    TMP DP  RH WIND       PRES   REMARKS
GLASGOW        CLEAR     28  24  85 W8        29.81F WCI  20
JORDAN           N/A     34  27  75 W12       29.84F WCI  25
SIDNEY         CLEAR     28  27  93 CALM      29.82S
WOLF POINT     CLEAR     30  26  85 CALM      29.83F
PLENTYWOOD       N/A     34  30  86 W12       29.76S WCI  25
POPLAR           N/A     27  25  93 CALM      29.82F
SCOBEY           N/A     21  11  65 CALM      29.77F
$$

MTZ028>42-056>058-141000-
SOUTHCENTRAL AND SOUTHEAST MONTANA

CITY           SKY/WX    TMP DP  RH WIND       PRES   REMARKS
BAKER          CLEAR     31  26  82 W15       29.83F WCI  20
BILLINGS       CLOUDY    38  19  46 W9        29.90F WCI  31
LIVINGSTON     LGT SNOW  34  29  82 W25G33    29.94S WCI  21
MILES CITY     CLEAR     36  26  67 W13       29.86F WCI  27
EKALAKA          N/A     31  25  78 W8        29.84F WCI  24
FORSYTH          N/A     36  25  64 W3        29.88F
LAUREL           N/A     34  18  52 CALM      29.89F
ROUNDUP          N/A     35  17  48 SW5       29.81F
$$

REGIONAL REPORTS...DAKOTAS

CITY           SKY/WX    TMP DP  RH WIND       PRES   REMARKS
WILLISTON      CLOUDY    31  27  85 CALM      29.78F
MINOT          CLOUDY    23  17  78 W5        29.73S
DICKINSON      CLOUDY    32  29  88 NW22G30   29.76S WCI  19
BEACH            N/A     32  32 100 W14       29.84S WCI  22
CROSBY         LGT SNOW  25  25 100 W6        29.77F WCI  18
TIOGA          CLOUDY    25  25 100 NW16      29.80R WCI  12
BISMARCK       CLOUDY    21  18  88 SE3       29.79S FOG
GRAND FORKS    CLOUDY    13   7  77 S21       29.95F BLWGSNOWWCI  -5
FARGO          LGT SNOW  14   7  73 SE21G29   29.98F WCI  -4
BUFFALO SD       N/A     33  28  81 W18       29.76F WCI  22
RAPID CITY     CLEAR     37  26  64 NW17      29.86F WCI  27
$$

REGIONAL REPORTS...WYOMING/IDAHO/WASHINGTON

CITY           SKY/WX    TMP DP  RH WIND       PRES   REMARKS
GILLETTE       CLOUDY    27  21  78 W14       29.93F WCI  16
SHERIDAN       CLOUDY    28  19  69 CALM      29.91F
BUFFALO WY     CLOUDY    31  15  52 S6        29.93F WCI  25
CODY           CLOUDY    39  18  41 W15G26    29.91F WCI  31
YELLOWSTONE LA   N/A     22  19  89 VRB6      30.04F WCI  14
IDAHO FALLS    CLOUDY    36  27  69 S17G24    30.13F WCI  26
SALMON         CLOUDY    34  27  75 CALM      30.08F
BOISE          LGT RAIN  44  35  70 S7        30.19R
SPOKANE        CLOUDY    39  36  89 SW24      30.03R WCI  28
$$

REGIONAL REPORTS...ALBERTA

CITY           SKY/WX    TMP DP  RH WIND       PRES   REMARKS
EDMONTON       MOCLDY    30  23  74 W7        29.63F WCI  23
CALGARY        MOCLDY    36  18  48 SW6       29.66F WCI  31
LETHBRIDGE     CLOUDY    41  21  45 W33G41    29.72F
MEDICINE HAT   MOCLDY    34  28  80 S9        29.71F WCI  26
WATERTON GATE    N/A     37  19  48 SW32G48     N/A  WCI  25
CARDSTON         N/A     39  19  45 W15G21      N/A  WCI  31
MILK RIVER       N/A     34  23  64 SW9         N/A  WCI  26
$$

REGIONAL REPORTS...SASKATCHEWAN

CITY           SKY/WX    TMP DP  RH WIND       PRES   REMARKS
SWIFT CURRENT  CLOUDY    27  23  86 SW12      29.71F WCI  16
REGINA         CLOUDY    23  23 100 NW5       29.73S
SASKATOON      PTCLDY    12  10  92 SW9       29.70F FOG     WCI   0
CYPRESS HILLS    N/A     28  25  86 W9          N/A  WCI  20
VAL MARIE        N/A     28  23  80 W10         N/A  WCI  19
ROCKGLEN         N/A     28  23  80 W10         N/A  WCI  19
ASSINIBOIA       N/A     39  30  70 S10         N/A
$$



USA.gov is the U.S. government's official web portal to all federal, state and local government web resources and services.